{"data":{"norad_id":66254,"intl_designator":"2025-245W","name":"STARLINK-35488","alt_names":[],"object_type":"PAYLOAD","status":"ACTIVE","operator":null,"country":"US","launch_date":"2025-10-29","launch_site_code":"AFETR","launch_vehicle":null,"mission":null,"orbit_class":"UNKNOWN","rcs_meters":null,"size_class":null,"mass_kg":null,"dimensions":null,"purposes":["comms"],"wikipedia_slug":null,"has_3d_model":false,"image_url":null,"decayed_at":null,"tle_current":{"epoch":"2026-05-25T02:12:58.741056Z","epoch_age_seconds":81214,"freshness":"FRESH","line1":"1 66254U 25245W   26145.09234654  .00015673  00000+0  51549-3 0  9990","line2":"2 66254  53.1607 289.0385 0001434  76.1176 283.9985 15.31716237 32951","mean_motion":15.31716237,"eccentricity":0.0001434,"inclination_deg":53.1607,"raan_deg":289.0385,"arg_perigee_deg":76.1176,"mean_anomaly_deg":283.9985,"bstar":0.00051549,"rev_number":3295,"period_min":94.01219137171,"perigee_km":469.70947198074,"apogee_km":471.6737160215,"semimajor_km":6848.8285940011,"source":"CELESTRAK","updated_at":"2026-05-25T13:38:21.137813Z"}}}